User: anonymous   Login
Location: Whitehorse
(60.7170°N, 135.0500°W)
Time: 03:53:07
(UTC-07:00)
Language:

Cosmos 2219 Rocket - Orbit

View from above orbital plane
View from above orbital plane
View from above satellite
View from above satellite

Ground track
Ground track

The orbit data is extracted from the following two-line orbital elements,

1 22220U 92076B   17205.98241039 -.00000167 +00000-0 -59814-4 0  9990
2 22220 071.0013 339.6911 0014279 222.9983 277.5663 14.16418767276121
Epoch (UTC): 24 July 2017 23:34:40
Eccentricity: 0.0014279
inclination: 71.0013°
perigee height: 827 km
apogee height: 848 km
right ascension of ascending node: 339.6911°
argument of perigee: 222.9983°
revolutions per day: 14.16418767
mean anomaly at epoch: 277.5663°
orbit number at epoch: 27612

The dashed part of the orbit path shows where the satellite is in the earth's shadow,  

DLR